TimeAST,TemperatureF,Dew PointF,Humidity,Sea Level PressureIn,VisibilityMPH,Wind Direction,Wind SpeedMPH,Gust SpeedMPH,PrecipitationIn,Events,Conditions,WindDirDegrees,DateUTC
12:00 AM,41.0,39.2,93,29.78,12.0,WNW,4.6,-,N/A,,Overcast,290,2012-11-24 04:00:00
12:14 AM,-9999,-9999,N/A,-9999,10.0,WSW,2.3,-,N/A,,Overcast,240,2012-11-24 04:14:00
12:22 AM,-9999,-9999,N/A,-9999,6.0,SW,2.3,-,N/A,,Light Drizzle,220,2012-11-24 04:22:00
1:00 AM,41.0,39.2,93,29.74,6.0,Calm,Calm,-,N/A,,Light Drizzle,0,2012-11-24 05:00:00
1:12 AM,-9999,-9999,N/A,-9999,8.0,Calm,Calm,-,N/A,,Overcast,0,2012-11-24 05:12:00
2:00 AM,43,42,96,29.73,7,SE,4.6,,,Rain,Light Drizzle,140,2012-11-24 06:00:00
2:00 AM,42.8,42.8,100,29.72,8.0,SE,3.5,-,N/A,,Overcast,140,2012-11-24 06:00:00
3:00 AM,42.8,42.8,100,29.71,8.0,West,3.5,-,N/A,,Overcast,280,2012-11-24 07:00:00
4:00 AM,42.8,41.0,93,29.68,6.0,West,2.3,-,N/A,,Overcast,270,2012-11-24 08:00:00
4:23 AM,-9999,-9999,N/A,-9999,5.0,SSW,3.5,-,N/A,,Light Drizzle,210,2012-11-24 08:23:00
5:00 AM,42.8,41.0,93,29.65,5.0,Calm,Calm,-,N/A,,Light Drizzle,0,2012-11-24 09:00:00
6:00 AM,42.8,42.8,100,29.63,3.0,ESE,3.5,-,N/A,,Light Drizzle,110,2012-11-24 10:00:00
6:29 AM,-9999,-9999,N/A,-9999,1.0,NNE,3.5,-,N/A,,Overcast,30,2012-11-24 10:29:00
6:39 AM,-9999,-9999,N/A,-9999,0.5,NE,4.6,-,N/A,Fog,Fog,50,2012-11-24 10:39:00
7:00 AM,42.8,42.8,100,29.61,0.5,ENE,3.5,-,N/A,Fog,Fog,70,2012-11-24 11:00:00
7:37 AM,-9999,-9999,N/A,-9999,0.2,Calm,Calm,-,N/A,Fog,Fog,0,2012-11-24 11:37:00
8:00 AM,42,42,99,29.59,0,Calm,Calm,,,Fog,Heavy Fog,,2012-11-24 12:00:00
8:00 AM,42.8,42.8,100,29.59,0.2,Calm,Calm,-,N/A,Fog,Fog,0,2012-11-24 12:00:00
8:28 AM,-9999,-9999,N/A,-9999,0.4,Calm,Calm,-,N/A,Fog,Fog,0,2012-11-24 12:28:00
8:43 AM,-9999,-9999,N/A,-9999,0.5,East,3.5,-,N/A,Fog,Fog,90,2012-11-24 12:43:00
9:00 AM,42.8,42.8,100,29.56,0.5,East,2.3,-,N/A,Fog,Fog,80,2012-11-24 13:00:00
9:06 AM,-9999,-9999,N/A,-9999,1.0,NNE,3.5,-,N/A,,Overcast,20,2012-11-24 13:06:00
9:16 AM,-9999,-9999,N/A,-9999,1.5,ENE,3.5,-,N/A,,Overcast,60,2012-11-24 13:16:00
9:30 AM,-9999,-9999,N/A,-9999,2.0,NE,3.5,-,N/A,,Overcast,50,2012-11-24 13:30:00
9:40 AM,-9999,-9999,N/A,-9999,4.0,NE,4.6,-,N/A,,Overcast,50,2012-11-24 13:40:00
10:00 AM,46.4,46.4,100,29.53,4.0,NE,3.5,-,N/A,,Overcast,50,2012-11-24 14:00:00
11:00 AM,48.2,46.4,93,29.50,8.0,Calm,Calm,-,N/A,,Overcast,0,2012-11-24 15:00:00
12:00 PM,50.0,48.2,94,29.46,12.0,WSW,2.3,-,N/A,,Mostly Cloudy,240,2012-11-24 16:00:00
1:00 PM,51.8,48.2,88,29.42,15.0,WSW,4.6,-,N/A,,Mostly Cloudy,250,2012-11-24 17:00:00
1:09 PM,-9999,-9999,N/A,-9999,15.0,WSW,3.5,-,N/A,,Mostly Cloudy,250,2012-11-24 17:09:00
1:41 PM,-9999,-9999,N/A,-9999,15.0,SSW,4.6,-,N/A,,Mostly Cloudy,200,2012-11-24 17:41:00
2:00 PM,54,45,62,29.39,15,SW,4.6,,,,Partly Cloudy,220,2012-11-24 18:00:00
2:00 PM,53.6,44.6,72,29.39,15.0,SW,4.6,-,N/A,,Mostly Cloudy,230,2012-11-24 18:00:00
3:00 PM,55.4,44.6,67,29.35,15.0,WSW,8.1,-,N/A,,Mostly Cloudy,250,2012-11-24 19:00:00
3:49 PM,-9999,-9999,N/A,-9999,12.0,WNW,10.4,-,N/A,,Mostly Cloudy,300,2012-11-24 19:49:00
4:00 PM,50.0,46.4,87,29.35,12.0,WNW,8.1,-,N/A,,Mostly Cloudy,290,2012-11-24 20:00:00
4:08 PM,-9999,-9999,N/A,-9999,15.0,West,8.1,-,N/A,,Mostly Cloudy,280,2012-11-24 20:08:00
4:21 PM,-9999,-9999,N/A,-9999,15.0,West,4.6,-,N/A,,Mostly Cloudy,270,2012-11-24 20:21:00
4:40 PM,-9999,-9999,N/A,-9999,15.0,WSW,4.6,-,N/A,,Overcast,250,2012-11-24 20:40:00
5:00 PM,48.2,44.6,87,29.33,15.0,SW,3.5,-,N/A,,Overcast,230,2012-11-24 21:00:00
5:07 PM,-9999,-9999,N/A,-9999,15.0,Calm,Calm,-,N/A,,Mostly Cloudy,0,2012-11-24 21:07:00
6:00 PM,48.2,44.6,87,29.31,15.0,SE,2.3,-,N/A,,Overcast,140,2012-11-24 22:00:00
6:53 PM,-9999,-9999,N/A,-9999,15.0,Calm,Calm,-,N/A,Rain,Light Rain Showers,0,2012-11-24 22:53:00
7:00 PM,48.2,44.6,87,29.31,15.0,South,2.3,-,N/A,Rain,Light Rain Showers,190,2012-11-24 23:00:00
7:16 PM,-9999,-9999,N/A,-9999,15.0,Calm,Calm,-,N/A,,Overcast,0,2012-11-24 23:16:00
7:46 PM,-9999,-9999,N/A,-9999,15.0,Calm,Calm,-,N/A,,Light Drizzle,0,2012-11-24 23:46:00
8:00 PM,46,45,96,29.29,12,Calm,Calm,,,Rain,Light Drizzle,,2012-11-25 00:00:00
8:00 PM,46.4,44.6,93,29.28,12.0,Calm,Calm,-,N/A,,Light Drizzle,0,2012-11-25 00:00:00
8:19 PM,-9999,-9999,N/A,-9999,12.0,SSW,4.6,-,N/A,,Overcast,210,2012-11-25 00:19:00
9:00 PM,48.2,44.6,87,29.25,15.0,SSW,6.9,-,N/A,,Overcast,210,2012-11-25 01:00:00
9:32 PM,-9999,-9999,N/A,-9999,12.0,WSW,5.8,-,N/A,Rain,Light Rain Showers,250,2012-11-25 01:32:00
9:49 PM,-9999,-9999,N/A,-9999,8.0,West,17.3,-,N/A,,Unknown,260,2012-11-25 01:49:00
10:00 PM,44.6,42.8,93,29.25,5.0,West,18.4,24.2,N/A,Rain,Light Rain Showers,270,2012-11-25 02:00:00
10:22 PM,-9999,-9999,N/A,-9999,6.0,West,15.0,-,N/A,,Overcast,270,2012-11-25 02:22:00
11:00 PM,41.0,39.2,93,29.26,6.0,WSW,15.0,-,N/A,,Overcast,250,2012-11-25 03:00:00
11:34 PM,-9999,-9999,N/A,-9999,10.0,WSW,13.8,-,N/A,,Overcast,250,2012-11-25 03:34:00